TimeEDT,TemperatureF,Dew PointF,Humidity,Sea Level PressureIn,VisibilityMPH,Wind Direction,Wind SpeedMPH,Gust SpeedMPH,PrecipitationIn,Events,Conditions,WindDirDegrees,DateUTC
12:53 AM,52.0,50.0,93,29.86,10.0,Calm,Calm,-,N/A,,Clear,0,2013-05-17 04:53:00
1:53 AM,53.1,48.0,83,29.88,10.0,NNW,6.9,-,N/A,,Clear,330,2013-05-17 05:53:00
2:53 AM,53.1,46.0,77,29.91,10.0,Calm,Calm,-,N/A,,Clear,0,2013-05-17 06:53:00
3:53 AM,55.9,39.9,55,29.93,10.0,NNW,4.6,-,N/A,,Clear,330,2013-05-17 07:53:00
4:53 AM,52.0,42.1,69,29.95,10.0,Calm,Calm,-,N/A,,Clear,0,2013-05-17 08:53:00
5:53 AM,48.0,43.0,83,29.98,10.0,Calm,Calm,-,N/A,,Clear,0,2013-05-17 09:53:00
6:53 AM,52.0,44.1,74,30.02,10.0,NNW,4.6,-,N/A,,Clear,340,2013-05-17 10:53:00
7:53 AM,59.0,42.8,55,30.05,10.0,NNW,4.6,-,N/A,,Clear,340,2013-05-17 11:53:00
8:53 AM,60.1,41.0,49,30.07,10.0,NNW,8.1,-,N/A,,Clear,330,2013-05-17 12:53:00
9:53 AM,61.0,39.9,46,30.07,10.0,NNW,8.1,-,N/A,,Clear,340,2013-05-17 13:53:00
10:53 AM,63.0,39.0,41,30.09,10.0,NNW,9.2,-,N/A,,Clear,340,2013-05-17 14:53:00
11:53 AM,66.0,37.9,36,30.09,10.0,NNW,11.5,-,N/A,,Clear,330,2013-05-17 15:53:00
12:53 PM,68.0,37.0,32,30.09,10.0,North,10.4,16.1,N/A,,Clear,10,2013-05-17 16:53:00
1:53 PM,69.1,37.0,31,30.09,10.0,North,10.4,-,N/A,,Clear,350,2013-05-17 17:53:00
2:53 PM,69.8,39.2,33,30.08,10.0,NNW,9.2,-,N/A,,Clear,330,2013-05-17 18:53:00
3:53 PM,73.0,37.9,28,30.07,10.0,North,6.9,-,N/A,,Clear,360,2013-05-17 19:53:00
4:53 PM,73.9,39.0,28,30.07,10.0,NW,4.6,-,N/A,,Clear,310,2013-05-17 20:53:00
5:53 PM,73.9,37.9,27,30.08,10.0,Calm,Calm,-,N/A,,Clear,0,2013-05-17 21:53:00
6:53 PM,73.0,39.9,30,30.09,10.0,Calm,Calm,-,N/A,,Clear,0,2013-05-17 22:53:00
7:53 PM,64.9,42.1,43,30.11,10.0,Calm,Calm,-,N/A,,Clear,0,2013-05-17 23:53:00
8:53 PM,57.9,44.1,60,30.13,10.0,Calm,Calm,-,N/A,,Clear,0,2013-05-18 00:53:00
9:53 PM,55.0,48.0,77,30.16,10.0,Calm,Calm,-,N/A,,Clear,0,2013-05-18 01:53:00
10:53 PM,53.1,46.9,80,30.17,10.0,NNW,3.5,-,N/A,,Clear,330,2013-05-18 02:53:00
11:53 PM,51.1,46.0,83,30.19,10.0,Calm,Calm,-,N/A,,Clear,0,2013-05-18 03:53:00